Temp
87 87 88 91 90 90 89 89 88 89 90 90 91 93 92 93 90 88 88 86 85 84 86 86 86 86 86 86 87 87 88 87 87 87 87 87 88 87 87 89 89 86 88 88 89 89 89 89 89 89 88 89 89 87 87 88 88 91 88 88 87 86 87
84 86 87 90 90 89 89 89 90 89 90 90 90 90 91 93 90 89 87 86 86 85 86 87 86 86 87 86 88 87 87 87 87 87 88 87 87 87 89 89 89 87 85 87 85 89 90 92 91 89 88 89 90 88 89 88 88 88 89 87 87 87 87
82 85 86 88 88 88 87 89 90 90 90 91 91 91 91 89 89 88 87 87 86 86 87 88 86 87 87 87 87 87 88 89 89 89 89 90 90 91 90 89 90 91 91 89 87 90 92 91 90 90 90 89 90 88 87 88 88 89 88 87 86 87 86
79 82 85 86 87 88 88 88 88 90 90 90 91 93 91 89 90 89 88 88 87 87 86 89 89 89 89 87 88 88 88 89 89 91 91 91 91 92 90 90 89 91 90 91 92 92 93 91 91 90 90 89 89 89 89 89 90 89 89 87 87 87 87
78 82 84 84 85 87 87 88 88 88 89 90 90 90 92 92 92 91 90 91 90 88 90 91 91 91 90 90 91 91 90 90 90 91 92 92 91 91 91 92 91 91 91 93 91 90 89 90 92 89 89 88 90 89 88 88 89 88 87 87 86 88 88
77 77 81 81 82 86 88 90 90 90 90 88 88 90 91 91 94 94 92 91 91 90 90 91 91 91 90 91 91 92 90 90 89 89 91 91 90 91 92 92 93 92 94 93 94 93 92 91 91 90 90 91 91 91 91 90 91 91 89 87 87 88 89
78 76 78 80 80 85 88 90 92 91 90 90 91 91 93 92 92 92 92 91 90 89 90 91 92 91 90 91 90 91 90 92 91 92 92 93 92 92 91 92 92 93 93 93 93 93 92 91 90 89 90 91 90 92 89 87 88 90 89 87 86 86 87
80 76 76 78 81 84 88 88 90 91 90 93 92 91 89 91 92 92 92 93 92 93 91 91 91 88 88 89 90 91 92 91 92 92 92 92 92 92 92 92 91 91 91 94 93 94 92 90 92 92 92 92 89 89 91 88 87 91 90 87 86 87 89
79 77 75 78 80 81 87 88 88 89 89 90 90 90 91 91 90 90 89 90 90 89 89 91 91 89 88 88 88 90 92 92 91 91 91 92 93 92 93 94 93 93 93 93 95 94 93 91 92 90 90 90 89 87 88 86 89 90 89 88 88 87 86
75 77 77 77 78 79 82 87 88 87 87 87 87 87 88 88 88 89 89 87 88 88 88 89 89 89 88 89 90 92 91 91 91 92 93 93 94 94 95 96 95 95 95 96 96 94 93 93 91 90 87 88 89 90 89 90 89 89 90 89 88 87 84
75 78 78 78 79 80 81 84 85 84 85 85 85 88 89 89 88 88 88 89 90 88 88 90 90 89 88 89 90 91 91 92 92 91 91 91 94 95 96 96 96 95 95 95 95 94 92 90 92 88 87 90 89 89 88 89 89 88 89 90 87 83 82
74 77 77 77 75 77 74 75 83 84 84 84 85 86 86 86 88 88 87 88 89 88 88 88 90 89 88 88 89 89 91 92 93 92 93 92 93 94 96 96 95 93 92 94 94 94 95 92 92 91 88 88 90 90 89 89 89 88 87 88 88 85 84
74 76 77 77 76 75 74 72 74 84 84 85 85 86 86 87 86 86 86 87 88 88 88 88 88 88 87 87 89 88 90 92 92 92 93 90 90 91 94 95 94 93 93 94 93 93 94 95 92 91 91 89 90 91 89 88 89 87 86 87 87 87 85
72 76 78 77 74 74 75 75 75 78 84 85 85 85 86 87 87 86 86 86 87 87 88 91 90 87 87 87 87 87 88 89 90 89 89 89 89 90 91 94 94 93 93 93 92 94 95 94 91 93 93 91 91 90 89 88 88 86 86 87 87 87 88
74 75 76 76 76 75 76 77 76 76 80 83 85 85 85 84 85 86 86 86 86 87 87 88 87 88 88 86 86 86 87 87 88 88 87 88 89 88 88 90 92 93 92 91 92 95 94 94 95 91 91 92 90 88 89 88 88 87 86 87 87 87 87
74 74 75 75 76 77 75 74 75 75 74 77 84 84 84 84 83 84 85 86 85 86 88 87 86 86 86 86 85 86 87 87 86 86 86 86 85 85 86 89 90 91 91 92 93 91 91 90 90 92 92 91 90 89 86 86 82 74 73 75 83 87 88
73 74 75 76 75 74 74 74 74 73 72 73 73 74 78 82 84 85 85 84 83 82 81 86 86 86 86 85 86 86 86 85 85 85 84 83 84 83 83 84 86 86 87 88 90 89 88 90 90 88 87 84 84 84 85 81 75 68 67 69 71 81 85
74 74 74 74 73 73 72 70 69 70 71 71 72 73 74 75 81 84 83 84 83 79 77 77 81 82 84 85 85 85 85 85 85 84 82 82 82 82 82 82 82 83 84 86 89 87 89 89 87 75 79 81 83 83 81 74 65 65 66 67 68 71 78
73 73 73 74 73 72 71 70 70 70 71 73 72 74 75 75 73 74 76 78 80 80 78 77 79 81 80 82 82 82 83 81 81 81 82 81 82 82 82 81 82 82 83 84 85 87 85 85 81 76 76 74 73 75 77 73 64 64 65 65 66 67 75
71 70 70 70 72 71 70 69 69 70 71 72 72 73 73 73 72 73 75 74 75 78 79 76 76 77 78 79 80 80 79 78 78 78 79 80 82 82 82 82 82 83 84 85 84 84 83 80 76 75 75 76 78 75 75 73 65 63 64 64 65 66 72
69 69 69 70 69 70 69 70 69 69 70 72 72 74 74 73 74 73 73 74 76 77 75 76 79 79 76 75 77 78 77 76 77 76 77 77 79 79 80 82 82 83 83 84 84 82 79 78 73 74 75 77 77 76 74 70 61 62 63 62 63 65 73
68 69 69 70 70 69 70 68 68 69 71 72 74 74 75 75 75 75 75 75 75 77 79 80 80 79 76 73 74 76 74 74 76 77 76 75 74 74 76 80 82 82 81 80 79 78 76 76 75 73 75 76 75 72 70 69 60 61 62 61 62 67 80
69 70 70 71 71 70 70 70 70 70 71 72 73 74 74 76 77 76 76 76 77 78 78 78 78 78 79 77 74 74 73 73 72 73 73 73 73 73 76 77 78 79 77 78 77 75 75 74 73 74 74 73 72 68 67 68 61 59 60 61 61 71 80
71 70 71 70 72 71 71 70 70 70 70 70 71 72 73 74 74 75 74 74 76 76 76 75 75 76 77 73 71 70 72 72 71 72 72 72 73 74 74 75 77 78 78 76 74 73 74 73 73 73 73 72 69 67 63 64 63 59 60 60 61 71 76
70 69 69 70 70 71 70 70 70 69 69 69 69 70 72 73 73 72 72 72 73 73 72 73 73 74 75 73 71 70 71 72 72 71 72 73 74 75 73 73 74 76 76 74 72 72 72 73 72 71 70 70 69 70 66 67 65 59 59 60 60 68 74
69 68 68 69 69 68 69 70 69 68 68 67 67 69 70 70 70 69 70 70 71 70 70 71 72 74 75 73 72 71 72 72 71 71 71 72 72 72 73 73 74 74 73 72 71 70 70 70 70 69 69 69 67 67 66 65 65 63 57 58 60 62 72
71 70 68 68 68 69 69 68 69 68 66 66 67 68 69 69 68 68 69 69 69 68 70 72 73 73 72 73 73 72 72 71 71 69 69 69 68 69 69 69 69 69 70 69 69 68 68 68 68 67 67 67 67 67 67 66 64 62 56 57 57 60 67
71 70 70 69 69 69 68 68 67 68 67 67 67 68 68 68 66 66 66 67 67 68 71 71 71 71 71 70 70 71 70 70 70 70 69 69 68 67 67 67 68 68 68 68 68 68 67 67 67 65 64 64 63 64 65 69 69 63 59 57 57 56 62
69 68 67 67 68 70 69 67 67 67 67 67 68 67 67 67 66 66 66 65 66 69 70 71 71 71 70 69 69 69 69 70 69 69 70 69 69 68 67 67 67 67 67 67 66 65 65 65 66 65 64 64 65 66 67 67 68 69 67 60 57 57 59
69 69 69 69 69 69 69 68 68 66 66 66 66 66 67 66 65 65 65 65 67 68 69 70 70 71 70 70 70 70 70 70 70 69 69 69 68 68 68 67 67 67 66 66 65 64 64 64 65 66 65 65 65 67 68 69 68 68 69 67 60 58 59
68 68 69 69 68 68 69 68 67 67 67 68 67 67 66 66 65 65 65 66 68 68 69 69 70 70 70 70 71 70 70 70 70 70 70 71 70 69 68 68 68 66 67 67 67 66 66 66 67 67 66 66 66 66 67 68 69 68 67 68 68 61 59
71 71 71 70 69 69 68 67 69 68 66 67 68 68 68 68 68 65 65 69 69 70 69 70 70 69 70 71 71 72 73 72 72 72 72 72 72 71 71 70 70 69 69 69 68 68 67 66 67 66 66 64 65 66 67 69 68 68 69 69 70 68 64
70 70 69 68 70 70 69 68 67 66 66 67 70 71 71 70 69 68 68 68 70 70 69 69 69 69 69 68 69 70 70 70 71 71 72 72 73 74 74 73 73 72 70 70 71 70 69 69 69 69 69 68 68 69 68 66 66 66 65 66 65 65 66
70 70 70 70 69 69 67 65 64 66 67 67 70 71 72 72 72 72 71 72 72 71 71 70 71 72 71 73 73 72 73 74 74 72 70 69 68 68 72 74 73 69 66 64 66 71 73 73 71 69 68 67 67 67 68 67 65 62 61 62 61 62 62
70 69 68 67 68 68 67 67 68 69 68 69 72 72 72 72 73 74 73 73 73 72 71 71 73 73 75 75 75 74 74 75 73 72 70 68 66 64 61 63 70 69 63 60 58 60 65 70 68 68 70 68 66 66 66 65 63 62 53 53 49 52 56
67 67 66 67 67 68 68 69 69 70 70 70 71 72 72 73 73 75 78 77 76 74 73 73 74 75 75 76 76 76 74 73 74 72 71 72 70 67 63 56 51 58 67 63 55 47 47 54 60 59 66 69 66 65 66 65 62 49 43 41 41 41 43
66 67 66 68 68 68 70 69 69 71 71 71 72 74 74 73 75 75 77 76 76 76 73 73 71 72 74 72 73 73 72 72 71 70 69 70 71 70 69 68 60 45 47 55 52 46 40 40 42 45 50 63 68 60 50 50 44 42 40 40 41 40 40
69 68 68 70 69 68 68 69 68 70 71 72 73 73 74 75 76 75 78 77 77 77 74 73 72 72 74 75 74 72 72 73 72 72 71 70 70 70 69 68 67 66 49 44 50 48 43 40 40 41 43 45 54 66 61 49 44 40 41 41 40 41 40
MSLP
1009.52 1009.64 1009.47 1008.99 1009.35 1009.76 1010.23 1010.40 1010.59 1010.79 1010.64 1010.79 1010.88 1010.79 1011.03 1010.99 1011.55 1012.16 1012.67 1013.16 1013.52 1013.88 1013.76 1013.84 1013.99 1014.08 1014.35 1014.43 1014.43 1014.47 1014.52 1014.76 1014.88 1015.20 1015.40 1015.47 1015.43 1015.52 1015.84 1015.76 1015.96 1016.11 1016.03 1016.23 1016.11 1016.03 1015.88 1015.76 1015.91 1016.11 1016.16 1016.23 1016.40 1016.52 1016.55 1016.55 1016.72 1016.72 1016.84 1016.88 1017.08 1017.32 1017.32
1010.03 1009.64 1009.55 1008.91 1009.11 1009.43 1009.76 1010.08 1010.16 1010.67 1010.55 1010.76 1010.91 1010.76 1010.88 1010.91 1011.32 1011.84 1012.43 1012.88 1013.16 1013.52 1013.55 1013.64 1013.79 1013.96 1014.08 1014.20 1014.16 1014.28 1014.47 1014.55 1014.64 1014.79 1014.96 1015.16 1015.16 1015.20 1015.20 1015.32 1015.43 1015.76 1015.88 1015.88 1015.79 1015.59 1015.52 1015.55 1015.64 1015.96 1016.20 1016.16 1016.20 1016.23 1016.35 1016.52 1016.64 1016.72 1016.76 1016.91 1017.20 1017.23 1017.28
1010.40 1009.67 1009.28 1008.76 1008.91 1009.28 1009.59 1009.79 1009.91 1010.11 1010.35 1010.40 1010.47 1010.76 1010.84 1010.88 1011.08 1011.55 1012.03 1012.64 1013.03 1013.23 1013.23 1013.40 1013.55 1013.67 1013.79 1013.91 1014.08 1014.16 1014.23 1014.28 1014.47 1014.67 1014.91 1014.99 1015.08 1015.03 1014.96 1014.99 1015.11 1015.28 1015.32 1015.40 1015.47 1015.55 1015.28 1015.47 1015.52 1015.59 1015.84 1016.11 1016.08 1016.23 1016.35 1016.40 1016.52 1016.64 1016.67 1016.84 1017.16 1017.23 1017.32
1010.96 1010.16 1009.43 1009.11 1008.72 1008.72 1009.08 1009.55 1009.84 1009.88 1009.99 1010.23 1010.43 1010.32 1010.47 1010.76 1010.76 1011.11 1011.64 1012.11 1012.72 1012.99 1013.28 1013.11 1013.23 1013.40 1013.55 1013.79 1013.91 1014.03 1014.11 1014.11 1014.11 1014.23 1014.40 1014.43 1014.59 1014.64 1014.79 1014.88 1014.91 1014.88 1015.20 1015.20 1015.11 1015.20 1015.28 1015.28 1015.47 1015.55 1015.67 1015.91 1015.99 1016.11 1016.16 1016.28 1016.32 1016.43 1016.52 1016.67 1016.96 1016.99 1016.99
1011.16 1010.35 1009.72 1009.64 1009.35 1008.96 1009.08 1009.52 1009.76 1009.79 1009.88 1009.91 1009.99 1010.11 1010.32 1010.35 1010.59 1010.96 1011.40 1011.64 1012.11 1012.59 1012.64 1012.67 1012.76 1012.88 1013.08 1013.28 1013.47 1013.55 1013.79 1013.88 1013.96 1013.88 1013.96 1013.99 1014.03 1014.23 1014.52 1014.67 1014.76 1014.88 1014.76 1014.72 1014.67 1014.84 1015.11 1015.16 1015.28 1015.47 1015.64 1015.76 1015.91 1015.99 1016.20 1016.23 1016.28 1016.32 1016.47 1016.59 1016.99 1016.88 1016.96
1011.20 1011.11 1010.40 1010.08 1009.88 1008.91 1008.84 1009.03 1009.32 1009.43 1009.55 1009.99 1010.23 1010.16 1010.23 1010.23 1010.35 1010.84 1011.08 1011.52 1011.84 1012.03 1012.23 1012.32 1012.52 1012.64 1012.99 1012.99 1013.11 1013.20 1013.35 1013.52 1013.55 1013.64 1013.76 1013.79 1013.96 1014.35 1014.43 1014.35 1014.40 1014.47 1014.52 1014.52 1014.35 1014.55 1014.76 1015.03 1015.11 1015.35 1015.64 1015.64 1015.76 1015.76 1015.79 1016.03 1016.03 1016.03 1016.28 1016.47 1016.72 1016.76 1016.84
1010.67 1011.03 1010.84 1010.47 1010.20 1009.35 1008.76 1008.72 1008.88 1009.03 1009.11 1009.43 1009.59 1009.76 1009.84 1010.16 1010.32 1010.55 1010.76 1011.20 1011.47 1011.96 1012.11 1012.20 1012.16 1012.32 1012.64 1012.64 1012.88 1012.96 1013.23 1013.35 1013.43 1013.55 1013.55 1013.67 1013.76 1014.03 1014.16 1014.08 1014.08 1014.08 1014.16 1014.03 1014.23 1014.32 1014.67 1014.91 1015.03 1015.32 1015.40 1015.43 1015.55 1015.55 1015.64 1015.99 1016.03 1015.88 1016.03 1016.35 1016.67 1016.79 1016.84
1010.11 1011.03 1011.03 1010.59 1010.32 1009.72 1008.76 1008.67 1008.55 1008.79 1008.96 1008.99 1009.43 1009.84 1010.08 1010.11 1010.08 1010.35 1010.64 1010.72 1011.08 1011.32 1011.72 1011.84 1011.88 1012.03 1012.32 1012.40 1012.55 1012.76 1012.91 1013.03 1013.11 1013.28 1013.40 1013.67 1013.76 1013.96 1013.99 1014.08 1014.16 1014.08 1014.11 1014.20 1013.99 1013.96 1014.55 1014.79 1014.84 1014.88 1014.96 1015.20 1015.59 1015.55 1015.55 1015.67 1015.88 1015.79 1015.88 1016.35 1016.64 1016.79 1016.84
1010.40 1010.43 1011.28 1010.59 1010.43 1010.08 1008.96 1008.64 1008.55 1008.64 1008.96 1009.11 1009.40 1009.59 1009.79 1009.99 1010.16 1010.28 1010.40 1010.47 1010.79 1011.16 1011.40 1011.23 1011.35 1011.52 1011.88 1012.23 1012.43 1012.59 1012.64 1012.84 1013.08 1013.23 1013.43 1013.59 1013.55 1013.88 1013.76 1013.67 1013.76 1013.55 1013.88 1014.03 1013.84 1013.79 1014.08 1014.52 1014.67 1014.79 1014.96 1015.16 1015.23 1015.43 1015.55 1015.67 1015.76 1015.67 1015.84 1016.03 1016.40 1016.67 1017.03
1010.96 1010.59 1010.76 1010.67 1010.52 1010.20 1009.67 1008.59 1008.52 1008.72 1009.08 1009.32 1009.40 1009.55 1009.67 1009.88 1009.88 1009.84 1010.03 1010.23 1010.52 1010.91 1011.08 1011.08 1011.08 1011.32 1011.67 1012.03 1012.23 1012.28 1012.43 1012.67 1012.76 1012.96 1013.11 1013.35 1013.23 1013.32 1013.23 1013.16 1013.35 1013.28 1013.47 1013.47 1013.52 1013.91 1013.91 1013.99 1014.52 1014.76 1014.99 1015.20 1015.23 1015.20 1015.28 1015.35 1015.59 1015.72 1015.72 1016.03 1016.23 1016.55 1016.88
1010.55 1010.20 1010.23 1010.40 1010.43 1010.35 1010.23 1009.40 1008.91 1009.08 1009.16 1009.32 1009.35 1009.32 1009.35 1009.59 1009.76 1009.79 1009.91 1009.99 1010.28 1010.52 1010.59 1010.76 1010.79 1011.16 1011.52 1011.84 1012.16 1012.23 1012.43 1012.55 1012.72 1013.03 1012.99 1013.03 1012.96 1012.99 1012.91 1012.96 1013.03 1013.11 1013.32 1013.35 1013.55 1013.67 1014.03 1014.11 1014.03 1014.52 1014.84 1015.11 1015.28 1015.23 1015.43 1015.47 1015.55 1015.76 1015.88 1015.88 1016.03 1016.35 1016.64
1011.11 1010.55 1010.52 1010.35 1010.52 1010.79 1010.96 1010.76 1009.40 1009.03 1009.16 1009.23 1009.23 1009.23 1009.28 1009.32 1009.47 1009.64 1009.79 1009.84 1009.88 1010.28 1010.43 1010.59 1010.64 1010.99 1011.47 1011.79 1012.20 1012.40 1012.47 1012.55 1012.59 1012.79 1012.79 1012.91 1012.88 1012.79 1012.72 1012.72 1013.03 1013.40 1013.55 1013.40 1013.52 1013.52 1013.59 1014.08 1014.08 1014.32 1014.76 1014.84 1014.96 1014.99 1015.20 1015.28 1015.43 1015.67 1015.91 1015.99 1015.96 1016.16 1016.40
1011.16 1010.67 1010.64 1010.67 1010.99 1011.08 1010.91 1010.64 1010.91 1009.47 1009.11 1009.11 1009.16 1009.08 1009.16 1009.23 1009.35 1009.52 1009.76 1009.96 1009.91 1009.91 1010.16 1010.35 1010.59 1010.96 1011.43 1011.76 1012.08 1012.35 1012.47 1012.47 1012.47 1012.47 1012.55 1012.76 1012.84 1012.76 1012.72 1012.84 1013.11 1013.32 1013.47 1013.28 1013.43 1013.72 1013.72 1013.55 1013.96 1014.16 1014.47 1014.76 1014.76 1014.84 1015.03 1015.28 1015.35 1015.64 1015.79 1015.88 1015.91 1016.03 1016.28
1011.35 1010.64 1010.40 1010.59 1011.23 1011.40 1011.16 1011.11 1011.23 1010.79 1009.43 1009.20 1009.20 1009.03 1009.08 1009.08 1009.20 1009.40 1009.59 1009.91 1009.91 1010.03 1010.20 1010.20 1010.47 1010.91 1011.28 1011.59 1011.96 1012.16 1012.32 1012.20 1012.08 1012.23 1012.35 1012.40 1012.59 1012.72 1012.76 1012.76 1012.88 1013.16 1013.11 1013.20 1013.43 1013.43 1013.47 1013.79 1014.23 1014.08 1014.16 1014.52 1014.64 1014.76 1014.91 1015.20 1015.40 1015.59 1015.76 1015.84 1015.88 1015.96 1016.03
1011.28 1011.03 1010.88 1010.91 1010.79 1010.99 1010.99 1011.03 1011.20 1011.47 1010.43 1009.52 1009.23 1009.28 1009.35 1009.40 1009.43 1009.40 1009.43 1009.52 1009.67 1009.96 1010.11 1010.03 1010.43 1010.84 1011.23 1011.47 1011.84 1011.96 1011.91 1011.96 1012.11 1012.32 1012.35 1012.55 1012.55 1012.76 1012.91 1012.99 1012.96 1012.96 1013.16 1013.28 1013.47 1013.43 1013.40 1013.47 1013.67 1014.20 1014.32 1014.32 1014.52 1014.79 1015.03 1015.35 1015.55 1015.64 1015.76 1015.79 1015.84 1015.88 1016.03
1011.20 1011.03 1010.91 1010.79 1010.64 1010.47 1010.84 1011.20 1011.11 1011.28 1011.28 1010.79 1009.88 1009.47 1009.47 1009.59 1009.64 1009.67 1009.76 1009.76 1009.88 1010.03 1009.96 1010.03 1010.47 1010.76 1011.08 1011.43 1011.64 1011.67 1011.76 1011.91 1012.20 1012.47 1012.43 1012.72 1012.99 1012.96 1013.08 1013.16 1013.20 1013.16 1013.28 1013.32 1013.23 1013.47 1013.59 1013.84 1014.11 1014.11 1014.20 1014.55 1014.76 1014.91 1015.40 1015.55 1015.84 1016.28 1016.23 1016.20 1016.03 1015.84 1015.79
1011.08 1010.96 1010.72 1010.55 1010.64 1010.84 1010.96 1011.35 1011.23 1011.20 1011.43 1011.47 1011.20 1011.11 1010.47 1009.84 1009.52 1009.72 1009.88 1009.91 1010.16 1010.32 1010.32 1010.40 1010.59 1010.76 1010.99 1011.35 1011.32 1011.47 1011.67 1011.91 1012.20 1012.35 1012.72 1012.88 1013.08 1013.23 1013.35 1013.47 1013.47 1013.59 1013.67 1013.59 1013.59 1013.79 1013.84 1013.96 1014.08 1014.47 1014.55 1014.99 1015.32 1015.55 1015.64 1015.96 1016.55 1016.67 1016.64 1016.59 1016.52 1016.20 1015.99
1010.99 1010.91 1010.76 1010.72 1010.88 1010.84 1011.16 1011.40 1011.52 1011.55 1011.43 1011.59 1011.55 1011.11 1011.52 1011.76 1010.55 1009.96 1010.20 1010.16 1010.40 1010.64 1010.79 1011.11 1011.35 1011.40 1011.40 1011.23 1011.35 1011.52 1011.72 1011.91 1012.08 1012.43 1012.88 1013.08 1013.32 1013.40 1013.52 1013.59 1013.76 1013.96 1014.03 1014.03 1013.99 1014.03 1014.08 1014.32 1014.79 1016.35 1016.59 1016.40 1016.03 1015.88 1015.99 1016.67 1016.99 1016.88 1016.88 1016.88 1016.79 1016.67 1016.43
1011.20 1010.99 1010.99 1010.79 1011.11 1011.23 1011.16 1010.96 1010.67 1010.96 1011.43 1011.59 1012.11 1011.08 1011.23 1011.79 1012.11 1011.47 1011.35 1011.11 1010.72 1010.64 1011.16 1011.43 1011.67 1011.43 1011.64 1011.55 1011.64 1011.76 1011.88 1012.11 1012.32 1012.59 1012.91 1013.23 1013.40 1013.47 1013.59 1013.79 1014.03 1014.16 1014.28 1014.43 1014.28 1014.23 1014.52 1014.59 1015.23 1015.84 1015.99 1016.43 1017.11 1017.43 1017.11 1016.99 1017.11 1016.96 1016.88 1016.96 1016.91 1016.76 1016.47
1011.84 1011.84 1011.84 1011.59 1011.23 1011.40 1011.40 1011.16 1010.67 1010.47 1010.91 1011.47 1011.96 1011.20 1010.11 1010.43 1011.59 1011.88 1011.67 1012.11 1011.99 1011.52 1011.47 1012.43 1012.67 1012.28 1011.96 1011.79 1011.84 1011.91 1012.03 1012.35 1012.64 1013.11 1013.23 1013.28 1013.47 1013.59 1013.79 1013.99 1014.20 1014.08 1014.03 1014.11 1014.20 1014.55 1014.76 1015.08 1015.72 1015.84 1015.99 1016.20 1016.32 1016.76 1017.16 1017.32 1017.40 1017.11 1017.03 1016.99 1016.88 1016.72 1016.55
1012.55 1012.43 1012.11 1011.96 1011.91 1011.72 1011.84 1011.52 1011.08 1010.72 1010.64 1011.08 1011.84 1011.16 1010.64 1010.76 1010.76 1010.99 1011.79 1012.52 1012.84 1012.47 1012.67 1012.52 1011.59 1011.79 1012.35 1012.35 1012.20 1012.23 1012.59 1012.91 1013.16 1013.64 1013.67 1013.72 1013.79 1014.08 1014.32 1014.23 1014.16 1014.11 1014.08 1014.11 1014.35 1014.64 1015.11 1015.43 1015.88 1015.84 1016.08 1016.23 1016.47 1016.88 1017.23 1017.64 1017.79 1017.47 1017.23 1017.08 1016.88 1016.72 1016.52
1012.79 1012.43 1012.35 1011.99 1011.91 1011.96 1011.84 1012.11 1011.91 1011.35 1010.84 1010.55 1010.84 1010.79 1010.67 1010.79 1010.96 1011.59 1011.96 1012.40 1013.08 1012.84 1011.96 1011.20 1010.91 1011.40 1012.55 1012.84 1012.64 1013.03 1013.72 1014.11 1014.11 1014.11 1014.16 1014.20 1014.28 1014.43 1014.64 1014.52 1014.35 1014.35 1014.23 1014.43 1014.64 1014.88 1014.99 1015.28 1015.64 1016.16 1016.20 1016.08 1016.47 1017.03 1017.55 1017.79 1017.79 1017.67 1017.52 1017.32 1017.03 1016.76 1016.47
1012.52 1012.32 1012.03 1011.84 1011.76 1011.88 1011.79 1011.76 1011.84 1011.55 1011.20 1010.47 1010.35 1010.67 1010.79 1010.55 1010.79 1011.40 1011.72 1012.23 1012.43 1012.16 1011.47 1011.11 1011.32 1011.52 1011.76 1012.64 1013.40 1013.43 1013.76 1014.52 1015.03 1014.84 1014.28 1014.23 1014.40 1014.47 1014.52 1014.91 1014.91 1014.64 1014.59 1014.84 1015.08 1015.28 1015.32 1015.40 1015.76 1015.84 1015.96 1016.23 1016.76 1017.32 1017.84 1018.03 1018.11 1017.96 1017.67 1017.35 1017.16 1016.84 1016.64
1012.32 1012.16 1011.96 1011.91 1011.64 1011.84 1011.88 1011.88 1011.47 1011.40 1011.40 1010.91 1010.64 1010.55 1010.55 1010.59 1010.91 1011.28 1011.72 1012.03 1012.16 1012.08 1011.88 1011.79 1011.96 1011.88 1011.99 1012.79 1013.76 1014.35 1014.28 1014.23 1014.40 1014.47 1014.40 1014.72 1014.91 1014.84 1014.99 1015.20 1015.08 1014.76 1014.64 1014.91 1015.23 1015.43 1015.35 1015.40 1015.67 1015.84 1015.99 1016.47 1017.08 1017.40 1018.03 1018.52 1018.32 1017.99 1017.67 1017.52 1017.28 1017.03 1017.11
1012.59 1012.32 1012.20 1012.03 1012.03 1011.96 1011.96 1011.84 1011.59 1011.35 1011.43 1011.35 1011.03 1010.88 1010.59 1010.76 1011.20 1011.72 1012.16 1012.28 1012.35 1012.43 1012.52 1012.47 1012.35 1012.32 1012.35 1012.76 1013.28 1013.96 1014.03 1014.08 1014.11 1014.64 1014.67 1014.59 1014.43 1014.43 1014.84 1015.23 1015.20 1014.76 1014.67 1014.99 1015.23 1015.52 1015.52 1015.79 1015.99 1016.32 1016.43 1016.67 1016.96 1017.32 1017.84 1018.20 1018.08 1017.88 1017.67 1017.59 1017.55 1017.43 1017.43
1012.84 1012.59 1012.52 1012.35 1012.32 1012.35 1012.28 1011.99 1011.88 1011.84 1011.64 1011.84 1011.67 1011.16 1011.20 1011.32 1011.67 1012.23 1012.55 1012.67 1012.72 1012.96 1013.08 1012.99 1012.76 1012.47 1012.47 1012.88 1013.35 1013.79 1013.79 1013.88 1014.28 1014.55 1014.55 1014.59 1014.67 1014.76 1014.84 1014.84 1014.91 1014.91 1015.11 1015.32 1015.47 1015.91 1016.20 1016.55 1016.47 1016.52 1016.72 1016.91 1017.28 1017.55 1017.79 1018.08 1018.23 1018.20 1017.96 1017.79 1017.79 1017.79 1017.76
1012.79 1012.64 1012.79 1012.79 1012.79 1012.55 1012.59 1012.55 1012.40 1012.40 1012.11 1011.79 1011.47 1011.47 1011.67 1011.84 1012.16 1012.59 1012.79 1012.91 1013.11 1013.40 1013.28 1012.96 1012.72 1012.67 1012.76 1012.91 1013.35 1013.76 1014.16 1014.43 1014.55 1014.88 1014.79 1014.84 1015.03 1015.23 1015.47 1015.35 1015.08 1015.20 1015.55 1015.91 1015.88 1016.16 1016.55 1016.88 1016.91 1016.79 1016.91 1017.16 1017.35 1017.64 1017.91 1017.79 1017.76 1018.20 1018.40 1018.16 1018.03 1017.99 1017.96
1012.96 1012.99 1012.96 1012.72 1012.64 1012.88 1012.96 1012.91 1012.79 1012.52 1012.28 1011.99 1011.91 1011.84 1012.08 1012.40 1012.79 1013.16 1013.32 1013.32 1013.40 1013.35 1013.11 1013.03 1013.11 1013.20 1013.32 1013.55 1013.84 1014.11 1014.43 1014.72 1014.88 1014.99 1015.08 1015.11 1015.11 1015.43 1015.76 1015.84 1015.67 1015.67 1015.88 1016.20 1016.52 1016.64 1016.76 1017.35 1017.84 1017.76 1017.64 1017.64 1017.52 1017.43 1017.91 1017.88 1017.43 1018.11 1018.43 1018.23 1018.16 1018.23 1018.20
1013.55 1013.67 1013.76 1013.64 1013.43 1013.35 1013.16 1013.11 1012.96 1012.79 1012.72 1012.47 1012.35 1012.23 1012.43 1012.64 1013.08 1013.43 1013.55 1013.79 1013.88 1013.52 1013.35 1013.28 1013.40 1013.59 1013.79 1014.03 1014.32 1014.55 1014.79 1014.91 1015.08 1015.23 1015.35 1015.52 1015.55 1015.79 1016.11 1016.16 1016.23 1016.32 1016.35 1016.67 1016.88 1016.96 1016.99 1017.32 1017.88 1018.16 1018.11 1017.99 1017.64 1017.67 1017.96 1017.96 1018.03 1018.20 1018.20 1018.11 1018.23 1018.40 1018.32
1013.76 1013.72 1013.76 1013.64 1013.55 1013.67 1013.84 1013.59 1013.20 1013.16 1013.11 1012.99 1012.99 1012.96 1012.88 1012.96 1013.52 1013.84 1014.03 1014.43 1014.20 1013.96 1013.76 1013.67 1013.76 1013.91 1014.23 1014.47 1014.67 1014.88 1015.08 1015.16 1015.23 1015.32 1015.59 1015.91 1016.08 1016.20 1016.40 1016.59 1016.79 1016.99 1017.03 1016.99 1017.16 1017.35 1017.55 1017.99 1018.35 1018.55 1018.52 1018.16 1018.03 1018.08 1018.08 1018.08 1018.20 1018.20 1018.11 1018.20 1018.40 1018.52 1018.32
1014.11 1014.28 1014.23 1013.96 1013.96 1013.72 1013.88 1013.91 1013.67 1013.43 1013.40 1013.43 1013.43 1013.40 1013.35 1013.20 1013.59 1014.40 1014.64 1014.64 1014.28 1014.16 1014.08 1014.08 1014.11 1014.35 1014.67 1014.91 1015.03 1015.11 1015.32 1015.40 1015.43 1015.64 1015.91 1016.08 1016.23 1016.55 1016.84 1017.08 1017.11 1017.20 1017.08 1017.08 1017.35 1017.59 1017.99 1018.28 1018.40 1018.52 1018.47 1018.32 1018.35 1018.28 1018.11 1018.03 1018.03 1018.11 1018.08 1018.16 1018.20 1018.23 1018.28
1013.88 1014.03 1014.03 1013.96 1013.96 1013.88 1013.96 1014.11 1013.99 1013.84 1013.84 1013.79 1013.72 1013.76 1013.67 1013.67 1013.84 1014.47 1014.72 1014.47 1014.35 1014.28 1014.28 1014.32 1014.55 1014.88 1015.20 1015.32 1015.40 1015.52 1015.47 1015.52 1015.67 1015.88 1016.03 1016.20 1016.32 1016.52 1016.67 1016.88 1016.99 1017.11 1017.20 1017.28 1017.55 1017.76 1018.03 1018.32 1018.47 1018.67 1018.64 1018.52 1018.20 1017.96 1017.99 1018.08 1018.20 1018.32 1018.40 1018.43 1018.40 1018.35 1018.32
1013.79 1014.16 1014.55 1014.76 1014.40 1014.11 1014.23 1014.35 1014.55 1014.64 1014.59 1014.43 1014.11 1014.03 1014.11 1014.23 1014.23 1014.28 1014.40 1014.64 1014.64 1014.67 1014.72 1014.88 1015.08 1015.35 1015.52 1015.64 1015.64 1015.59 1015.59 1015.79 1016.08 1016.28 1016.32 1016.40 1016.40 1016.43 1016.59 1016.72 1016.88 1017.11 1017.32 1017.32 1017.40 1017.67 1017.99 1018.20 1018.32 1018.35 1018.28 1018.20 1018.11 1018.03 1018.32 1018.64 1018.72 1018.79 1018.88 1018.79 1018.76 1018.72 1018.64
1014.03 1014.32 1014.76 1015.08 1015.11 1014.96 1015.16 1015.28 1015.32 1015.03 1014.88 1014.91 1014.52 1014.28 1014.23 1014.20 1014.20 1014.20 1014.35 1014.55 1014.76 1014.91 1015.03 1015.35 1015.52 1015.64 1015.76 1015.76 1015.72 1015.76 1015.76 1015.91 1016.20 1016.55 1016.91 1017.11 1017.20 1017.28 1017.08 1016.91 1017.20 1017.72 1018.11 1018.28 1018.03 1017.64 1017.59 1017.79 1018.11 1018.32 1018.40 1018.47 1018.35 1018.40 1018.59 1018.88 1019.11 1019.32 1019.32 1019.23 1019.23 1019.16 1019.03
1014.03 1014.28 1014.79 1015.40 1015.67 1015.72 1015.88 1015.64 1015.43 1015.20 1015.23 1014.99 1014.59 1014.52 1014.52 1014.52 1014.43 1014.43 1014.47 1014.59 1014.72 1014.99 1015.32 1015.52 1015.55 1015.64 1015.72 1015.76 1015.79 1015.99 1015.99 1016.20 1016.47 1016.84 1017.20 1017.52 1017.79 1018.20 1018.35 1018.20 1017.84 1018.16 1018.67 1019.08 1019.08 1018.64 1018.32 1018.20 1018.52 1018.52 1018.43 1018.64 1018.79 1018.84 1019.11 1019.32 1019.59 1019.76 1020.11 1019.96 1019.96 1019.72 1019.52
1014.47 1014.52 1014.99 1015.03 1015.35 1015.96 1016.03 1015.67 1015.40 1015.23 1015.11 1015.03 1014.88 1014.88 1014.88 1014.84 1014.72 1014.59 1014.59 1014.67 1014.79 1014.96 1015.28 1015.47 1015.55 1015.59 1015.72 1015.72 1015.91 1016.16 1016.35 1016.55 1016.76 1016.96 1017.16 1017.47 1017.84 1018.20 1018.64 1018.91 1018.64 1018.35 1018.40 1018.99 1019.52 1019.32 1019.03 1018.67 1018.99 1019.28 1018.84 1018.79 1019.11 1019.16 1019.35 1019.64 1019.72 1019.99 1019.84 1019.76 1019.79 1019.91 1019.96
1014.76 1014.88 1015.28 1015.43 1015.40 1015.59 1015.88 1016.03 1015.91 1015.59 1015.40 1015.20 1014.99 1014.96 1014.99 1015.03 1015.03 1014.99 1014.91 1014.88 1014.88 1015.03 1015.32 1015.52 1015.88 1016.08 1016.28 1016.40 1016.55 1016.67 1016.79 1016.96 1017.20 1017.32 1017.43 1017.52 1017.64 1017.88 1018.16 1018.47 1018.88 1019.16 1019.20 1019.16 1019.32 1019.32 1019.32 1019.43 1019.47 1019.28 1019.03 1018.91 1019.16 1019.52 1019.64 1019.72 1019.84 1019.76 1019.79 1019.79 1019.76 1019.84 1019.79
1014.67 1014.84 1015.32 1015.47 1015.55 1015.67 1015.88 1016.16 1016.32 1016.03 1015.64 1015.32 1015.20 1015.20 1015.20 1015.28 1015.28 1015.20 1015.11 1015.11 1015.16 1015.23 1015.52 1015.76 1016.03 1016.32 1016.43 1016.52 1016.72 1016.79 1016.91 1017.08 1017.23 1017.35 1017.52 1017.67 1017.79 1017.96 1018.16 1018.40 1018.67 1018.88 1019.11 1019.23 1019.08 1019.16 1019.28 1019.35 1019.32 1019.35 1019.28 1019.28 1019.28 1019.28 1019.64 1019.79 1019.88 1019.91 1019.88 1019.84 1019.88 1019.76 1019.72
Wind_Speed
15 15 13 13 14 15 15 13 14 12 11 11 11 14 14 12 12 12 13 13 13 13 12 11 10 10 10 9 9 8 8 7 6 6 6 5 5 5 6 7 7 4 3 4 5 6 4 5 5 6 4 6 5 6 3 2 3 4 3 2 2 3 3
13 15 15 16 14 14 15 14 12 13 11 13 13 11 12 13 12 13 13 14 14 15 14 13 11 10 11 9 9 9 8 9 7 6 6 5 5 4 5 5 4 6 5 4 0 3 3 5 5 6 6 5 5 4 5 4 3 3 3 3 3 3 3
13 13 12 11 13 13 14 13 15 14 15 13 14 14 13 9 12 12 13 14 14 14 13 14 12 12 10 9 9 9 10 9 8 9 9 8 9 9 7 5 5 5 7 6 3 6 5 5 3 3 5 5 6 6 4 5 4 4 3 4 4 5 4
10 12 13 9 7 12 14 13 12 12 13 13 12 12 13 10 12 10 13 14 15 15 14 15 14 14 12 11 10 9 10 9 9 10 10 9 9 9 7 6 4 5 6 7 8 7 6 5 6 3 4 3 2 4 5 4 5 5 5 4 3 4 2
7 9 9 9 9 11 13 14 14 11 13 14 12 12 11 12 13 12 14 15 15 16 16 16 14 13 11 12 11 10 11 12 10 9 9 8 7 6 7 8 8 8 5 7 5 5 3 3 5 5 4 3 4 5 4 3 4 3 2 2 3 4 3
10 10 9 7 6 10 14 17 18 16 15 16 13 12 14 12 15 16 15 15 15 14 14 14 15 13 13 13 12 11 11 10 8 7 7 7 6 8 8 8 9 9 9 8 6 6 6 5 5 5 7 6 7 7 7 6 6 6 5 4 4 3 3
9 9 8 7 6 7 14 15 18 16 13 14 15 12 12 13 14 15 14 15 15 15 16 16 15 13 11 11 10 11 12 12 11 11 10 9 8 9 8 8 5 5 6 4 6 6 7 5 4 5 6 7 5 6 4 3 4 4 3 2 2 2 2
8 9 9 7 7 9 13 12 14 15 13 15 15 15 13 14 12 14 15 14 15 16 15 15 14 10 10 9 10 11 11 11 10 10 8 10 10 9 8 6 7 7 8 9 6 5 7 6 6 6 6 6 5 5 3 3 3 5 4 3 3 4 2
5 7 8 8 9 9 8 11 11 13 14 15 15 15 15 15 14 12 12 11 12 11 12 12 11 10 10 9 8 10 11 11 10 10 11 12 10 11 11 11 10 9 8 9 8 7 6 7 7 3 2 3 5 7 5 5 6 3 3 2 2 2 2
8 7 11 8 9 8 10 10 10 11 13 13 12 12 13 12 10 10 11 10 11 11 12 10 8 9 10 10 10 12 10 10 10 13 13 12 11 12 12 10 9 7 8 8 6 6 5 7 8 5 3 3 4 3 3 3 3 4 2 2 3 2 2
6 6 7 7 9 10 10 10 10 9 11 11 10 11 13 13 11 10 10 9 11 9 10 10 8 8 9 9 10 10 9 10 10 9 10 9 10 11 11 9 8 6 7 7 8 8 6 4 6 7 6 6 6 3 3 4 3 2 4 2 2 3 1
6 6 5 7 5 5 5 9 7 9 10 9 9 10 10 10 10 10 8 10 8 9 9 9 8 8 9 9 9 8 11 11 11 12 10 8 8 9 10 9 7 4 6 9 7 6 7 6 7 6 5 5 5 5 5 3 2 1 1 2 1 3 3
5 5 4 4 6 3 1 4 14 9 10 10 10 10 9 9 9 9 9 10 8 7 8 8 8 8 9 9 10 9 10 11 11 10 10 8 7 6 7 7 7 8 10 8 7 7 9 8 8 5 6 6 6 6 3 3 4 1 0 2 3 2 2
6 6 6 4 3 4 4 5 11 12 8 10 8 9 9 9 8 10 10 11 11 10 9 10 10 9 9 9 9 8 9 9 8 8 6 5 6 5 5 7 9 9 9 6 5 7 7 5 6 5 5 6 6 3 3 4 4 3 3 2 2 2 2
8 8 7 6 6 6 6 8 2 9 11 9 9 9 9 9 7 6 8 9 10 10 10 9 9 9 10 9 9 8 7 6 3 3 1 2 4 5 4 4 5 3 3 3 7 5 5 5 4 7 7 5 3 4 2 3 2 1 1 3 4 2 4
6 6 8 8 8 7 3 5 5 4 6 8 11 12 12 9 10 8 8 8 5 5 7 10 8 9 9 9 8 7 6 3 4 2 2 1 2 3 3 1 2 4 3 4 3 3 2 3 3 7 7 5 2 4 5 3 4 7 12 10 4 2 3
5 6 7 7 5 4 6 4 5 8 9 8 10 11 5 8 10 10 8 6 5 5 1 2 7 8 9 9 8 7 6 4 4 5 4 3 3 3 3 3 1 1 2 3 1 1 2 2 2 3 5 7 7 6 6 6 5 10 10 10 12 7 3
5 6 7 6 5 5 6 5 2 5 7 11 8 6 9 12 5 4 6 7 7 5 3 1 5 3 4 7 8 7 6 5 6 6 6 4 4 3 4 3 2 1 2 2 3 2 2 2 4 13 9 8 5 5 7 7 8 10 9 8 9 7 5
4 4 4 5 5 4 4 6 7 6 2 1 2 1 1 3 11 10 9 6 2 5 5 7 7 4 3 3 4 5 5 3 4 4 5 4 4 3 3 3 3 2 1 1 1 3 3 3 8 9 9 7 3 4 6 6 8 8 8 8 7 8 6
6 7 8 7 2 1 5 4 5 6 6 3 4 5 8 9 5 4 5 8 9 4 8 11 12 9 6 4 4 5 5 5 4 3 3 3 3 4 4 4 4 4 4 3 2 1 3 8 11 7 3 3 6 7 5 5 8 8 7 7 7 8 5
6 6 7 6 3 2 2 3 5 6 8 5 7 6 7 6 6 6 3 3 9 9 9 10 8 10 9 3 4 4 3 4 4 1 1 2 3 4 3 3 4 5 4 4 2 3 6 8 10 4 2 4 6 6 7 6 9 9 10 9 9 9 6
5 5 5 6 4 3 2 2 2 2 5 6 5 4 5 8 9 7 6 6 7 7 3 3 3 5 7 9 7 1 6 7 5 1 2 4 3 1 7 7 4 4 2 3 4 5 5 6 8 8 4 6 8 7 7 6 9 9 9 9 10 9 4
2 2 3 4 5 4 3 2 2 2 2 6 9 8 6 6 9 8 7 6 3 3 6 5 5 3 2 8 7 5 8 5 5 2 1 3 4 6 5 5 6 2 2 3 5 5 4 5 7 7 7 8 9 9 6 5 8 9 10 11 12 7 4
3 3 3 3 3 4 1 3 1 4 4 7 9 8 7 8 7 8 7 6 4 5 6 7 7 6 8 11 9 8 7 8 7 1 4 2 4 5 6 6 4 3 2 3 5 5 4 5 6 7 8 10 10 9 10 4 4 9 11 13 14 10 6
3 4 5 6 5 2 4 4 2 6 7 8 9 8 8 9 9 8 8 7 7 7 7 7 7 7 7 9 8 6 1 5 6 1 3 0 3 4 5 5 4 2 3 5 6 5 5 4 7 8 8 9 10 14 10 5 5 10 11 13 14 9 5
4 5 6 6 7 8 6 4 5 8 9 9 8 9 8 8 9 9 8 8 8 9 8 7 6 5 6 9 9 9 5 5 4 4 5 6 6 7 5 2 2 3 5 5 6 6 7 4 6 9 8 9 9 8 8 7 6 7 11 12 13 11 6
5 6 6 6 6 5 5 5 6 8 9 8 8 8 7 6 8 9 9 10 11 11 9 7 8 9 10 9 10 11 9 5 5 7 8 9 8 8 7 5 7 9 9 7 8 9 7 6 5 8 9 7 7 7 6 6 8 7 6 9 10 11 8
8 8 7 6 5 3 4 6 8 10 10 9 8 9 8 8 11 9 9 11 13 10 9 11 11 10 11 11 10 10 11 11 10 9 8 7 8 9 8 5 7 8 9 7 6 8 10 8 6 5 8 7 7 8 4 4 10 5 3 7 7 7 7
8 7 6 6 6 4 6 9 10 11 10 9 8 9 9 11 12 10 10 11 9 8 9 8 10 12 12 12 12 11 11 11 11 10 8 9 8 9 9 7 7 7 7 7 7 8 9 9 6 5 6 6 6 5 3 2 4 6 4 5 3 2 2
6 7 6 8 7 6 6 6 9 10 11 10 9 8 8 11 12 10 11 10 6 7 8 10 11 12 12 12 13 13 12 10 10 10 9 9 9 10 10 9 8 7 7 7 7 8 8 6 3 2 3 6 6 4 2 2 4 4 6 1 3 1 3
8 7 6 8 6 6 6 6 11 12 13 10 10 9 8 9 12 10 10 7 6 7 8 9 11 11 10 10 11 11 9 9 9 9 8 8 9 9 9 8 7 7 6 7 7 6 6 4 2 2 2 4 5 4 3 3 3 3 1 3 3 3 2
10 9 8 7 7 8 9 7 9 12 12 11 10 9 8 9 10 11 9 8 8 9 9 10 10 9 9 8 8 8 9 10 11 10 9 8 6 6 6 6 6 6 6 6 6 5 6 5 4 3 2 3 3 3 3 5 5 5 6 7 8 5 8
10 9 8 6 6 8 8 9 9 9 8 9 10 10 10 10 10 10 10 9 9 10 10 10 9 9 7 7 6 6 5 7 7 6 5 4 4 5 6 5 5 5 4 3 5 7 5 5 4 3 3 3 3 3 7 7 6 5 3 5 5 5 5
12 11 9 7 8 9 11 10 8 7 9 7 9 9 9 9 9 10 11 11 10 6 6 6 6 7 8 9 7 7 7 8 13 11 8 8 8 8 7 8 8 8 7 6 6 5 5 7 7 6 6 6 6 6 6 6 5 5 6 6 5 5 5
11 11 10 8 6 8 6 4 7 10 10 7 7 6 7 7 8 8 8 7 6 7 6 6 6 7 10 8 8 7 7 8 8 8 9 9 9 8 6 5 5 7 7 6 5 4 5 6 6 6 6 6 6 6 6 5 5 3 1 2 3 3 4
11 13 10 9 8 5 4 6 7 8 9 8 7 7 7 7 7 7 8 6 6 4 4 4 4 5 7 7 8 8 8 7 8 7 6 7 6 7 6 9 12 8 6 5 7 10 11 10 6 2 3 6 6 5 5 4 2 1 5 5 5 4 4
11 11 10 8 9 8 7 6 4 4 6 6 4 7 8 7 8 7 8 6 7 7 8 8 7 7 8 8 8 8 7 8 7 7 6 6 5 6 7 6 7 10 11 9 6 8 8 9 6 7 10 6 6 5 9 8 5 6 6 6 6 6 7
12 13 10 8 8 8 8 6 5 4 6 6 7 8 8 10 8 6 8 5 5 6 7 7 6 6 7 8 7 7 6 6 6 5 5 5 5 5 5 5 6 5 6 8 9 7 8 8 8 8 8 9 6 4 2 3 3 3 3 4 5 6 7
Wind_Direction
190 187 203 191 181 183 182 186 184 181 186 172 184 183 182 177 159 161 166 170 174 175 181 179 181 179 183 185 186 188 184 185 182 191 192 193 207 183 192 200 195 184 205 196 203 206 191 190 154 189 177 188 186 177 202 191 198 211 209 221 195 262 300
201 193 196 196 183 180 177 185 183 177 186 180 186 188 180 182 155 168 163 171 176 178 182 181 182 180 185 186 189 185 193 183 191 188 193 192 201 203 205 209 202 167 168 215 153 272 180 201 179 171 185 188 198 174 189 191 208 227 213 179 235 241 222
214 208 205 201 176 180 174 179 188 182 180 187 179 187 184 178 160 167 158 170 175 179 183 182 185 181 187 189 188 189 190 195 191 196 200 201 199 209 202 217 203 196 192 181 181 221 189 201 177 199 183 192 202 169 191 211 197 209 218 171 208 227 216
224 216 205 218 206 171 169 171 189 180 175 182 190 191 176 174 161 160 158 170 179 179 185 184 185 185 187 188 193 189 194 199 200 198 203 205 200 205 203 201 214 205 198 199 191 191 208 204 183 190 205 206 175 182 210 218 208 204 211 196 215 237 226
231 236 212 208 227 179 171 170 182 194 173 178 193 176 190 172 164 166 165 178 182 184 188 187 186 187 186 189 194 193 196 199 202 206 204 207 201 205 210 207 195 214 208 208 208 170 193 186 195 176 189 199 216 186 193 223 234 205 218 209 223 247 250
216 234 235 222 255 189 175 178 185 194 178 173 187 181 182 182 177 180 176 180 183 185 187 192 190 187 190 190 197 194 192 199 202 204 211 208 204 200 223 213 208 205 212 210 202 192 189 202 200 181 193 197 214 216 206 203 221 219 202 201 227 253 263
200 220 239 249 254 230 181 182 187 185 184 176 175 182 178 184 180 183 181 182 184 185 188 195 192 187 192 191 197 198 190 197 198 205 207 212 216 211 207 209 234 207 236 220 215 186 198 187 214 182 204 203 205 236 168 210 243 224 216 163 198 257 264
200 184 227 247 252 255 187 191 185 182 185 187 177 181 177 189 184 184 186 182 188 185 191 195 195 180 184 195 190 202 193 197 198 203 210 205 211 213 220 219 217 208 214 223 205 201 170 209 197 226 215 192 198 237 216 204 231 235 202 199 199 235 248
277 161 229 241 245 273 224 189 194 181 182 189 181 184 180 183 189 188 184 181 179 185 189 197 192 171 175 192 187 199 192 197 197 201 207 212 208 205 215 210 210 208 203 219 211 202 192 172 202 194 245 258 210 183 202 202 219 233 265 234 218 268 33
239 201 193 211 253 263 275 200 194 182 182 189 186 183 179 182 198 184 181 175 175 183 182 197 184 168 171 183 192 195 199 196 196 200 202 211 213 212 210 209 209 210 217 220 210 201 215 176 183 191 177 227 268 218 227 205 193 227 247 229 223 195 132
213 197 197 193 218 243 279 232 198 189 181 191 187 185 184 181 185 182 177 175 174 182 179 191 184 169 168 179 193 198 203 201 199 217 213 210 213 215 215 216 207 205 222 215 217 194 204 217 197 158 187 198 226 209 212 229 221 228 234 255 88 122 168
251 210 203 199 232 302 331 308 236 188 184 188 188 188 186 183 178 176 175 179 179 177 176 182 183 171 169 177 192 201 204 208 206 211 212 218 226 227 220 207 200 197 230 231 215 217 199 200 217 163 172 190 217 210 199 202 228 175 228 261 205 143 166
270 234 208 179 159 192 335 316 300 218 187 192 191 191 189 184 175 177 169 173 175 177 180 178 178 170 173 175 192 196 205 207 211 213 208 201 215 226 233 193 203 208 218 214 225 221 226 204 189 167 182 187 211 218 169 192 217 161 312 268 232 184 196
269 247 209 172 151 232 212 214 247 271 210 198 193 193 185 182 183 180 176 177 178 178 188 184 183 169 176 177 190 194 202 212 209 205 211 195 202 218 225 232 207 211 209 196 240 229 225 206 166 213 202 192 204 205 189 187 202 193 191 191 211 229 254
201 216 222 215 188 192 218 239 230 262 260 211 198 191 188 185 191 185 182 178 174 179 182 180 180 174 178 179 184 193 197 202 198 268 77 332 204 200 214 241 253 264 274 193 210 222 256 282 200 179 219 209 191 177 174 186 224 347 278 221 205 214 247
225 227 223 220 206 202 188 329 338 318 326 308 233 185 189 189 188 191 191 173 140 159 171 176 183 179 179 175 183 185 182 174 121 145 219 161 79 87 100 165 227 253 248 251 213 188 225 224 240 222 196 202 213 111 99 79 66 23 19 9 352 253 240
224 220 229 222 211 177 132 183 310 342 336 325 342 336 288 197 176 184 180 151 162 158 149 229 185 182 176 178 178 176 174 178 181 169 172 133 142 126 108 94 74 360 343 314 253 254 254 241 221 318 83 94 95 105 107 72 44 35 35 23 9 350 327
213 216 221 212 206 187 159 135 69 357 349 327 327 338 319 311 309 166 159 161 152 144 124 337 278 145 190 162 165 168 169 178 174 152 143 154 159 156 131 121 85 47 9 332 291 73 303 289 32 55 7 359 28 72 85 75 36 34 32 17 11 359 336
262 273 279 243 229 211 165 144 167 168 51 77 321 82 176 331 326 345 354 341 63 97 145 196 229 189 188 130 126 133 132 101 119 130 144 146 162 159 152 152 155 160 137 287 345 353 40 15 70 99 103 112 108 18 34 66 32 36 32 17 1 357 348
6 19 11 347 341 169 159 134 129 108 100 109 239 205 146 141 135 335 337 299 298 268 179 191 199 182 195 187 158 155 144 136 139 142 135 139 148 172 170 178 185 178 187 186 153 77 58 61 68 71 96 148 130 97 83 56 11 23 28 19 357 356 343
25 15 16 11 6 186 123 141 125 120 133 146 228 235 132 118 134 119 148 270 249 211 207 217 191 164 146 247 233 184 134 76 113 78 52 66 60 23 319 227 187 189 186 184 165 101 86 77 90 107 84 60 78 91 76 48 5 10 12 11 359 345 323
29 26 20 6 10 11 157 156 306 263 155 178 171 105 113 133 147 151 151 187 252 267 207 157 95 84 132 175 253 7 56 14 7 51 75 51 55 173 247 245 222 197 124 79 84 84 93 102 102 105 115 106 95 88 69 46 20 13 11 10 359 332 313
51 35 24 37 21 73 58 87 153 249 344 80 87 82 71 90 109 120 129 143 127 66 61 70 70 95 179 134 181 100 81 51 303 285 164 196 191 226 254 254 245 173 66 83 78 87 87 91 108 121 110 96 87 84 73 43 16 14 22 18 7 345 3
85 68 74 46 67 105 105 124 123 43 11 66 73 75 78 73 81 85 86 81 70 60 64 61 64 49 59 83 90 76 88 104 87 12 234 258 220 216 216 232 231 196 146 122 108 109 109 121 124 130 122 109 106 100 89 52 16 36 34 29 17 12 32
71 71 50 38 24 58 154 155 125 98 60 39 58 46 63 78 72 73 73 67 64 51 47 44 48 44 55 87 114 103 99 102 108 84 330 25 230 215 234 254 245 201 106 88 81 93 88 70 102 93 87 95 104 110 112 108 53 42 43 39 28 22 39
100 78 53 46 36 38 35 55 89 87 87 80 57 53 56 71 87 88 81 73 65 57 51 43 41 57 66 76 113 142 157 104 112 83 68 54 43 32 37 355 79 78 78 101 88 91 94 90 110 112 106 100 100 102 98 96 68 36 42 47 39 21 35
79 74 75 51 36 48 59 56 76 85 87 80 78 72 60 67 81 79 80 82 76 68 58 48 61 75 91 96 100 106 113 109 83 83 83 84 79 66 35 29 82 76 65 73 98 104 91 83 81 94 93 88 88 95 98 106 93 55 23 52 46 36 28
82 87 80 87 80 70 92 91 89 91 88 88 86 87 80 81 81 77 79 81 79 70 67 71 76 76 73 82 87 90 91 93 97 97 90 86 87 81 79 66 63 83 102 107 101 96 90 76 61 82 100 103 101 93 80 98 103 129 101 77 61 42 36
78 91 106 99 79 68 102 109 102 90 84 78 73 74 82 87 83 79 76 72 66 64 72 69 78 79 81 84 85 87 88 88 87 85 84 84 81 90 86 65 61 65 75 80 75 81 92 100 101 95 102 116 106 101 113 69 88 103 99 94 84 125 82
73 80 99 101 95 80 71 72 80 79 72 69 69 72 79 84 82 79 77 67 62 72 81 82 81 83 86 90 93 94 91 88 88 85 79 78 80 77 75 72 72 77 79 80 81 78 78 78 95 113 109 102 98 103 121 184 126 82 58 83 154 353 338
92 97 97 87 88 80 58 73 90 89 89 83 82 78 76 80 87 80 76 75 70 70 77 79 81 80 79 81 84 81 82 82 80 82 85 91 94 97 101 108 113 99 84 88 90 96 105 113 104 86 94 101 112 146 164 120 103 105 141 1 72 123 331
114 108 92 90 93 94 98 76 74 85 89 86 84 80 75 75 85 91 85 79 68 65 66 75 81 84 88 92 91 95 99 95 91 92 93 89 83 86 93 96 93 91 101 98 96 103 110 103 101 106 131 130 127 109 82 74 57 51 33 29 23 29 6
93 88 87 81 91 99 87 73 67 61 53 72 86 89 90 93 92 92 89 78 76 75 73 71 79 82 79 77 78 80 89 95 107 106 95 98 112 115 109 106 93 82 74 99 131 133 137 141 149 164 138 105 68 73 78 63 48 37 24 21 19 16 359
104 100 93 67 55 72 85 91 93 86 91 91 95 94 96 91 87 88 96 99 93 74 84 104 103 99 93 87 81 74 69 73 75 73 64 52 43 30 28 52 64 56 46 29 10 28 74 76 51 46 52 40 38 46 69 56 49 28 12 10 6 4 355
109 97 90 86 44 31 40 98 117 116 117 105 94 90 87 90 94 100 101 104 113 125 105 80 86 93 96 94 92 87 85 83 82 80 76 70 62 52 35 6 48 80 78 44 18 23 30 53 51 40 48 52 32 44 50 55 43 28 337 6 26 10 359
98 96 92 90 88 78 49 25 54 73 83 86 94 98 97 92 88 91 99 107 116 119 117 130 111 88 78 85 89 88 82 76 76 77 87 91 95 95 80 53 53 43 72 79 58 54 47 62 76 20 359 77 56 38 57 52 55 360 18 13 353 332 301
107 106 105 109 110 115 102 91 100 115 111 118 123 106 97 91 89 84 76 65 68 67 71 72 71 73 74 67 67 73 83 86 86 81 77 80 84 89 92 98 66 57 67 83 94 82 80 88 92 52 45 55 86 63 64 87 65 31 5 343 331 314 301
117 108 108 111 105 102 98 87 53 54 72 76 81 83 88 91 92 103 99 86 88 99 96 85 82 87 90 91 91 85 84 86 88 91 100 106 102 93 101 99 91 72 40 58 65 61 75 80 72 68 70 64 63 95 91 86 95 33 330 301 302 297 302